Regional Weather Roundup
Issued by NWS

Home | Current Version | Previous Version | Text Only | Print | Product List | Glossary Off
Versions: 1 2 3 4 5 6 7 8 9 10 11 12 13 14 15 16 17 18 19 20 21 22 23 24 25 26 27

000
ASUS45 KSLC 070110
RWRUT

UTAH REGIONAL WEATHER ROUNDUP
NATIONAL WEATHER SERVICE SALT LAKE CITY UT
600 PM MST TUE DEC 06 2016

UTZ001>011-023>025-070200-

NORTHERN UTAH

CITY           SKY/WX    TMP DP  RH WIND       PRES   REMARKS
BRIGHAM CITY     N/A     28  17  64 CALM      29.87R
HILL AFB       MOCLDY    22  14  72 CALM      29.85R
LOGAN          CLOUDY    23  17  78 CALM      29.85R
OGDEN          MOCLDY    25  16  68 SE3       29.85R
SALT LAKE CITY MOCLDY    27  21  78 W3        29.86R
TOOELE VALLEY  MOCLDY    28  21  74 NW3       29.87R
WENDOVER       CLOUDY    30  12  47 NW12      29.88R WCI  21
HEBER CITY     CLOUDY    27  18  69 E3        29.76R
WEST JORDAN    MOCLDY    25  25  99 NW3       29.85R

$$

UTZ011>015-024>027-070200-

CENTRAL/NORTHEAST UTAH

CITY           SKY/WX    TMP DP  RH WIND       PRES   REMARKS
PROVO AIRPORT  CLOUDY    29  21  72 NW9       29.85R WCI  20
MOAB/CANYONLAN CLEAR     29   6  38 N3        29.66F
DELTA          MOCLDY    28  12  50 NE9       29.82R WCI  20
PRICE          CLOUDY    29  14  53 NW20G31   29.73R WCI  16
RICHFIELD      MOCLDY    34   7  32 SE7       29.81R WCI  28
ROOSEVELT      CLOUDY    30   1  29 SW7       29.78R WCI  23
VERNAL         CLOUDY    28  -2  27 VRB5      29.75R WCI  23

$$

UTZ013>016-019>022-027-070200-

SOUTHERN UTAH

CITY           SKY/WX    TMP DP  RH WIND       PRES   REMARKS
BRYCE CANYON   PTCLDY    29  12  49 SW17      29.73R WCI  17
CEDAR CITY     PTCLDY    38  14  37 S14       29.73R WCI  30
MILFORD        PTCLDY    32   6  33 N22G31    29.78R WCI  19
ST GEORGE      CLOUDY    54  21  28 CALM      29.78S
HANKSVILLE     PTCLDY    32   3  29 NE7       29.70R WCI  26
KANAB          PTCLDY    45  19  36 SW14      29.80R
BLANDING       CLEAR     36  15  42 SW7       29.78S WCI  30

$$

REGIONAL REPORTS     COLORADO/ARIZONA

CITY           SKY/WX    TMP DP  RH WIND       PRES   REMARKS
CRAIG, CO      CLOUDY    23   7  50 N9        29.71R WCI  13
GRAND JUNCTION CLOUDY    20  11  68 N3        29.70R
RIFLE, CO      CLOUDY    26  13  57 SW5       29.69R WCI  20
MONTROSE, CO   CLOUDY    28  14  55 S5        29.69R WCI  23
CORTEZ, CO     CLEAR     31  20  63 CALM      29.73S
COLORADO CITY    N/A     45  21  39 W10       29.82R
PAGE, AZ       PTCLDY    52  10  18 SW8       29.72R
GRAND CANYON   MOCLDY    36  21  54 SW12      29.85R WCI  28
KINGMAN, AZ    MOCLDY    50  11  20 SW13      29.83R
FLAGSTAFF, AZ  MOCLDY    34  26  72 SW21G29   29.86R WCI  22

$$

REGIONAL REPORTS    NEVADA/IDAHO/WYOMING

CITY           SKY/WX    TMP DP  RH WIND       PRES   REMARKS
LAS VEGAS, NV  PTCLDY    59  13  16 S7        29.74S
ELY, NY        PTCLDY    26   8  46 NW10G22   29.82R WCI  16
ELKO, NV       MOCLDY    25  15  66 W6        29.87R WCI  18
POCATELLO, ID  FLURRIES  19  17  92 W5        29.89R WCI  12
BURLEY, ID     PTCLDY    17  14  88 SW8       29.91R WCI   7
FORT BRIDGER,  MOCLDY     6   3  86 W3        29.79R
EVANSTON, WY   CLOUDY     6  -1  73 E7        29.74R WCI  -6
ROCK SPRINGS,  LGT SNOW  13   8  81 W6        29.76R WCI   4

$$




USA.gov is the U.S. government's official web portal to all federal, state and local government web resources and services.